| time (UTC) | temp C | wind direction | speed KPH | gust KPH | rain 1hr cm | rain 24hr cm | rain mn cm | humidity % | barometer mb |
| 20260902060811 | 26 | 214 | 4.8 | 4.8 | 0.00 | 0.00 | 0.00 | 75 | 1013.1 |
| 20260902060306 | 26 | 211 | 3.2 | 4.8 | 0.00 | 0.00 | 0.00 | 76 | 1013.1 |
| 20260902055802 | 26 | 228 | 3.2 | 8.0 | 0.00 | 0.00 | 0.00 | 75 | 1013.0 |
| 20260902055258 | 26 | 184 | 4.8 | 8.0 | 0.00 | 0.00 | 0.00 | 76 | 1013.1 |
| 20260902054752 | 26 | 228 | 4.8 | 8.0 | 0.00 | 0.00 | 0.00 | 76 | 1013.1 |
| 20260902054248 | 26 | 221 | 4.8 | 4.8 | 0.00 | 0.00 | 0.00 | 75 | 1013.3 |
| 20260902053744 | 26 | 199 | 6.4 | 8.0 | 0.00 | 0.00 | 0.00 | 75 | 1013.2 |
| 20260902053243 | 26 | 211 | 6.4 | 11.3 | 0.00 | 0.00 | 0.00 | 75 | 1013.2 |
| 20260902052742 | 26 | 234 | 3.2 | 8.0 | 0.00 | 0.00 | 0.00 | 76 | 1013.2 |
| 20260902052232 | 26 | 201 | 4.8 | 8.0 | 0.00 | 0.00 | 0.00 | 76 | 1013.5 |
| 20260902051731 | 26 | 211 | 4.8 | 8.0 | 0.00 | 0.00 | 0.00 | 77 | 1013.3 |
| 20260902051221 | 26 | 242 | 3.2 | 3.2 | 0.00 | 0.00 | 0.00 | 76 | 1013.2 |
| 20260902050715 | 26 | 214 | 3.2 | 8.0 | 0.00 | 0.00 | 0.00 | 76 | 1013.3 |
| 20260902050210 | 26 | 192 | 4.8 | 4.8 | 0.00 | 0.00 | 0.00 | 76 | 1013.3 |
| 20260902045705 | 26 | 215 | 3.2 | 4.8 | 0.00 | 0.00 | 0.00 | 76 | 1013.4 |
| 20260902045201 | 26 | 225 | 4.8 | 8.0 | 0.00 | 0.00 | 0.00 | 75 | 1013.4 |
| 20260902044656 | 26 | 218 | 1.6 | 4.8 | 0.00 | 0.00 | 0.00 | 75 | 1013.4 |
| 20260902044152 | 26 | 177 | 4.8 | 8.0 | 0.00 | 0.00 | 0.00 | 75 | 1013.5 |
| 20260902043647 | 26 | 193 | 4.8 | 8.0 | 0.00 | 0.00 | 0.00 | 74 | 1013.3 |
| 20260902043142 | 26 | 183 | 3.2 | 4.8 | 0.00 | 0.00 | 0.00 | 74 | 1013.4 |
| 20260902042641 | 26 | 203 | 4.8 | 4.8 | 0.00 | 0.00 | 0.00 | 74 | 1013.3 |
| 20260902042136 | 26 | 199 | 3.2 | 4.8 | 0.00 | 0.00 | 0.00 | 75 | 1013.5 |
| 20260902041631 | 26 | 242 | 3.2 | 3.2 | 0.00 | 0.00 | 0.00 | 76 | 1013.4 |
| 20260902041126 | 26 | 217 | 3.2 | 3.2 | 0.00 | 0.00 | 0.00 | 76 | 1013.6 |
| 20260902040625 | 26 | 243 | 3.2 | 3.2 | 0.00 | 0.00 | 0.00 | 74 | 1013.5 |
| 20260902040121 | 27 | 246 | 1.6 | 3.2 | 0.00 | 0.00 | 0.00 | 73 | 1013.5 |
| 20260902035618 | 27 | 234 | 3.2 | 4.8 | 0.00 | 0.00 | 0.00 | 72 | 1013.4 |
| 20260902035113 | 27 | 195 | 3.2 | 4.8 | 0.00 | 0.00 | 0.00 | 72 | 1013.6 |
| 20260902034612 | 27 | 191 | 4.8 | 8.0 | 0.00 | 0.00 | 0.00 | 72 | 1013.5 |
| 20260902034107 | 27 | 206 | 3.2 | 8.0 | 0.00 | 0.00 | 0.00 | 73 | 1013.4 |
| 20260902033606 | 27 | 187 | 4.8 | 8.0 | 0.00 | 0.00 | 0.00 | 74 | 1013.3 |
| 20260902033101 | 26 | 176 | 6.4 | 9.7 | 0.00 | 0.00 | 0.00 | 75 | 1013.3 |
| 20260902032600 | 26 | 195 | 4.8 | 8.0 | 0.00 | 0.00 | 0.00 | 76 | 1013.3 |
| 20260902032055 | 26 | 195 | 4.8 | 4.8 | 0.00 | 0.00 | 0.00 | 77 | 1013.2 |
| 20260902031549 | 26 | 175 | 4.8 | 8.0 | 0.00 | 0.00 | 0.00 | 77 | 1013.3 |
| 20260902031045 | 26 | 171 | 4.8 | 8.0 | 0.00 | 0.00 | 0.00 | 76 | 1013.1 |
| 20260902030540 | 27 | 183 | 4.8 | 8.0 | 0.00 | 0.00 | 0.00 | 76 | 1013.1 |
| 20260902030040 | 27 | 191 | 4.8 | 4.8 | 0.00 | 0.00 | 0.00 | 75 | 1013.1 |
| 20260902025534 | 27 | 175 | 4.8 | 4.8 | 0.00 | 0.00 | 0.00 | 75 | 1013.2 |
| 20260902025029 | 27 | 170 | 3.2 | 4.8 | 0.00 | 0.00 | 0.00 | 75 | 1013.2 |
| 20260902024525 | 27 | 172 | 4.8 | 4.8 | 0.00 | 0.00 | 0.00 | 74 | 1013.3 |
| 20260902024025 | 27 | 185 | 4.8 | 4.8 | 0.00 | 0.00 | 0.00 | 75 | 1013.1 |
| 20260902023521 | 27 | 164 | 4.8 | 8.0 | 0.00 | 0.00 | 0.00 | 74 | 1013.1 |
| 20260902023015 | 27 | 188 | 3.2 | 4.8 | 0.00 | 0.00 | 0.00 | 74 | 1013.2 |
| 20260902022510 | 27 | 179 | 4.8 | 4.8 | 0.00 | 0.00 | 0.00 | 74 | 1012.9 |
| 20260902022005 | 27 | 165 | 3.2 | 4.8 | 0.00 | 0.00 | 0.00 | 73 | 1013.0 |
| 20260902021500 | 27 | 198 | 3.2 | 3.2 | 0.00 | 0.00 | 0.00 | 72 | 1013.0 |
| 20260902020955 | 28 | 200 | 3.2 | 4.8 | 0.00 | 0.00 | 0.00 | 71 | 1012.7 |
| 20260902020451 | 28 | 199 | 4.8 | 8.0 | 0.00 | 0.00 | 0.00 | 71 | 1013.0 |
| 20260902015947 | 28 | 172 | 4.8 | 8.0 | 0.00 | 0.00 | 0.00 | 70 | 1012.8 |
| 20260902015443 | 28 | 182 | 4.8 | 4.8 | 0.00 | 0.00 | 0.00 | 71 | 1012.6 |
| 20260902014938 | 28 | 191 | 3.2 | 4.8 | 0.00 | 0.00 | 0.00 | 70 | 1012.5 |
| 20260902014435 | 28 | 195 | 3.2 | 4.8 | 0.00 | 0.00 | 0.00 | 70 | 1012.6 |
| 20260902013933 | 28 | 191 | 4.8 | 4.8 | 0.00 | 0.00 | 0.00 | 70 | 1012.5 |
| 20260902013429 | 28 | 195 | 3.2 | 3.2 | 0.00 | 0.00 | 0.00 | 69 | 1012.6 |
| 20260902012924 | 28 | 186 | 4.8 | 4.8 | 0.00 | 0.00 | 0.00 | 69 | 1012.4 |
| 20260902012420 | 28 | 185 | 4.8 | 4.8 | 0.00 | 0.00 | 0.00 | 69 | 1012.3 |
| 20260902011916 | 28 | 189 | 3.2 | 4.8 | 0.00 | 0.00 | 0.00 | 69 | 1012.6 |
| 20260902011410 | 29 | 192 | 3.2 | 4.8 | 0.00 | 0.00 | 0.00 | 69 | 1012.5 |
| 20260902010910 | 29 | 231 | 3.2 | 4.8 | 0.00 | 0.00 | 0.00 | 69 | 1012.3 |
| 20260902010405 | 29 | 257 | 3.2 | 8.0 | 0.00 | 0.00 | 0.00 | 69 | 1012.2 |
| 20260902005904 | 29 | 144 | 3.2 | 4.8 | 0.00 | 0.00 | 0.00 | 69 | 1012.4 |
| 20260902005358 | 30 | 227 | 1.6 | 4.8 | 0.00 | 0.00 | 0.00 | 68 | 1012.2 |
| 20260902004854 | 30 | 165 | 4.8 | 8.0 | 0.00 | 0.00 | 0.00 | 67 | 1012.4 |
| 20260902004353 | 30 | 258 | 1.6 | 3.2 | 0.00 | 0.00 | 0.00 | 68 | 1012.3 |
| 20260902003849 | 30 | 201 | 3.2 | 3.2 | 0.00 | 0.00 | 0.00 | 66 | 1012.4 |
| 20260902003344 | 30 | 244 | 3.2 | 9.7 | 0.00 | 0.00 | 0.00 | 66 | 1012.4 |
| 20260902002840 | 31 | 255 | 3.2 | 3.2 | 0.00 | 0.00 | 0.00 | 65 | 1012.4 |
| 20260902002339 | 31 | 198 | 3.2 | 4.8 | 0.00 | 0.00 | 0.00 | 64 | 1012.4 |
| 20260902001835 | 31 | 160 | 4.8 | 8.0 | 0.00 | 0.00 | 0.00 | 63 | 1012.4 |
| 20260902001330 | 31 | 192 | 4.8 | 8.0 | 0.00 | 0.00 | 0.00 | 62 | 1012.5 |
| 20260902000824 | 31 | 258 | 1.6 | 4.8 | 0.00 | 0.00 | 0.00 | 62 | 1012.7 |
| 20260902000324 | 32 | 243 | 4.8 | 8.0 | 0.00 | 0.00 | 0.00 | 61 | 1012.6 |
| 20260901235819 | 32 | 236 | 3.2 | 9.7 | 0.00 | 0.00 | 0.00 | 61 | 1012.5 |
| 20260901235314 | 32 | 192 | 4.8 | 4.8 | 0.00 | 0.00 | 0.00 | 61 | 1012.6 |
| 20260901234813 | 32 | 207 | 6.4 | 8.0 | 0.00 | 0.00 | 0.00 | 60 | 1012.5 |
| 20260901234308 | 33 | 247 | 3.2 | 3.2 | 0.00 | 0.00 | 0.00 | 60 | 1012.6 |
| 20260901233803 | 33 | 222 | 6.4 | 11.3 | 0.00 | 0.00 | 0.00 | 59 | 1012.6 |
| 20260901233253 | 33 | 190 | 3.2 | 8.0 | 0.00 | 0.00 | 0.00 | 59 | 1012.5 |
| 20260901232748 | 33 | 250 | 3.2 | 4.8 | 0.00 | 0.00 | 0.00 | 59 | 1012.5 |
| 20260901232238 | 33 | 215 | 3.2 | 8.0 | 0.00 | 0.00 | 0.00 | 59 | 1012.4 |
| 20260901231734 | 33 | 219 | 4.8 | 9.7 | 0.00 | 0.00 | 0.00 | 58 | 1012.4 |
| 20260901231230 | 34 | 171 | 4.8 | 8.0 | 0.00 | 0.00 | 0.00 | 57 | 1012.5 |
| 20260901230725 | 34 | 176 | 6.4 | 8.0 | 0.00 | 0.00 | 0.00 | 57 | 1012.4 |
| 20260901230219 | 35 | 190 | 4.8 | 9.7 | 0.00 | 0.00 | 0.00 | 57 | 1012.6 |
| 20260901225715 | 35 | 229 | 4.8 | 9.7 | 0.00 | 0.00 | 0.00 | 56 | 1012.4 |
| 20260901225209 | 35 | 249 | 3.2 | 4.8 | 0.00 | 0.00 | 0.00 | 56 | 1012.7 |
| 20260901224705 | 35 | 173 | 6.4 | 8.0 | 0.00 | 0.00 | 0.00 | 55 | 1012.6 |
| 20260901224201 | 35 | 217 | 6.4 | 9.7 | 0.00 | 0.00 | 0.00 | 55 | 1012.6 |
| 20260901223657 | 35 | 264 | 4.8 | 8.0 | 0.00 | 0.00 | 0.00 | 56 | 1012.7 |
| 20260901223151 | 35 | 222 | 8.0 | 9.7 | 0.00 | 0.00 | 0.00 | 54 | 1012.6 |
| 20260901222648 | 35 | 213 | 4.8 | 9.7 | 0.00 | 0.00 | 0.00 | 55 | 1012.7 |
| 20260901222144 | 35 | 233 | 9.7 | 9.7 | 0.00 | 0.00 | 0.00 | 53 | 1012.7 |
| 20260901221639 | 35 | 228 | 9.7 | 11.3 | 0.00 | 0.00 | 0.00 | 52 | 1012.7 |
| 20260901221135 | 35 | 239 | 8.0 | 11.3 | 0.00 | 0.00 | 0.00 | 52 | 1012.5 |
| 20260901220634 | 35 | 216 | 8.0 | 11.3 | 0.00 | 0.00 | 0.00 | 52 | 1012.8 |
| 20260901220134 | 35 | 207 | 8.0 | 11.3 | 0.00 | 0.00 | 0.00 | 51 | 1012.8 |
| 20260901215632 | 35 | 216 | 6.4 | 12.9 | 0.00 | 0.00 | 0.00 | 51 | 1012.6 |
| 20260901215126 | 36 | 245 | 6.4 | 9.7 | 0.00 | 0.00 | 0.00 | 52 | 1012.8 |
| 20260901214624 | 35 | 249 | 6.4 | 12.9 | 0.00 | 0.00 | 0.00 | 50 | 1012.9 |
| 20260901214119 | 36 | 233 | 14.5 | 16.1 | 0.00 | 0.00 | 0.00 | 49 | 1012.8 |
| 20260901213613 | 35 | 207 | 8.0 | 12.9 | 0.00 | 0.00 | 0.00 | 51 | 1012.8 |
| 20260901213108 | 36 | 212 | 6.4 | 12.9 | 0.00 | 0.00 | 0.00 | 50 | 1012.8 |
| 20260901212608 | 36 | 210 | 8.0 | 11.3 | 0.00 | 0.00 | 0.00 | 49 | 1012.8 |
| 20260901212104 | 35 | 167 | 9.7 | 12.9 | 0.00 | 0.00 | 0.00 | 49 | 1012.8 |
| 20260901211558 | 35 | 212 | 11.3 | 17.7 | 0.00 | 0.00 | 0.00 | 49 | 1012.7 |
| 20260901211055 | 35 | 208 | 11.3 | 14.5 | 0.00 | 0.00 | 0.00 | 49 | 1012.7 |
| 20260901210550 | 36 | 192 | 11.3 | 16.1 | 0.00 | 0.00 | 0.00 | 50 | 1012.9 |
| 20260901210046 | 36 | 296 | 6.4 | 9.7 | 0.00 | 0.00 | 0.00 | 50 | 1012.9 |
| 20260901205541 | 36 | 217 | 9.7 | 16.1 | 0.00 | 0.00 | 0.00 | 49 | 1013.1 |
| 20260901205036 | 35 | 230 | 8.0 | 14.5 | 0.00 | 0.00 | 0.00 | 50 | 1012.9 |
| 20260901204532 | 36 | 227 | 9.7 | 17.7 | 0.00 | 0.00 | 0.00 | 49 | 1013.0 |
| 20260901204026 | 35 | 207 | 11.3 | 20.9 | 0.00 | 0.00 | 0.00 | 50 | 1013.2 |
| 20260901203521 | 35 | 216 | 12.9 | 16.1 | 0.00 | 0.00 | 0.00 | 50 | 1013.1 |
| 20260901203017 | 36 | 210 | 6.4 | 9.7 | 0.00 | 0.00 | 0.00 | 50 | 1013.2 |
| 20260901202511 | 35 | 232 | 8.0 | 12.9 | 0.00 | 0.00 | 0.00 | 49 | 1013.3 |
| 20260901202007 | 35 | 210 | 9.7 | 17.7 | 0.00 | 0.00 | 0.00 | 50 | 1013.4 |
| 20260901201502 | 35 | 236 | 6.4 | 16.1 | 0.00 | 0.00 | 0.00 | 52 | 1013.3 |
| 20260901201002 | 35 | 206 | 11.3 | 14.5 | 0.00 | 0.00 | 0.00 | 50 | 1013.5 |
| 20260901200451 | 35 | 242 | 11.3 | 16.1 | 0.00 | 0.00 | 0.00 | 49 | 1013.4 |
| 20260901195950 | 35 | 203 | 9.7 | 14.5 | 0.00 | 0.00 | 0.00 | 51 | 1013.5 |
| 20260901195448 | 35 | 226 | 11.3 | 14.5 | 0.00 | 0.00 | 0.00 | 52 | 1013.5 |
| 20260901194938 | 35 | 232 | 4.8 | 11.3 | 0.00 | 0.00 | 0.00 | 52 | 1013.5 |
| 20260901194432 | 35 | 216 | 8.0 | 11.3 | 0.00 | 0.00 | 0.00 | 51 | 1013.7 |
| 20260901193929 | 35 | 264 | 9.7 | 17.7 | 0.00 | 0.00 | 0.00 | 50 | 1013.9 |
| 20260901193427 | 35 | 172 | 6.4 | 16.1 | 0.00 | 0.00 | 0.00 | 49 | 1013.9 |
| 20260901192922 | 35 | 229 | 8.0 | 16.1 | 0.00 | 0.00 | 0.00 | 49 | 1014.1 |
| 20260901192417 | 35 | 236 | 12.9 | 16.1 | 0.00 | 0.00 | 0.00 | 51 | 1014.1 |
| 20260901191913 | 35 | 200 | 9.7 | 12.9 | 0.00 | 0.00 | 0.00 | 51 | 1014.1 |
| 20260901191408 | 35 | 193 | 11.3 | 16.1 | 0.00 | 0.00 | 0.00 | 53 | 1014.2 |
| 20260901190904 | 35 | 246 | 8.0 | 14.5 | 0.00 | 0.00 | 0.00 | 50 | 1014.2 |
| 20260901190359 | 35 | 181 | 9.7 | 12.9 | 0.00 | 0.00 | 0.00 | 50 | 1014.2 |
| 20260901185857 | 35 | 212 | 9.7 | 14.5 | 0.00 | 0.00 | 0.00 | 53 | 1014.4 |
| 20260901185356 | 35 | 284 | 4.8 | 8.0 | 0.00 | 0.00 | 0.00 | 52 | 1014.0 |
| 20260901184852 | 35 | 243 | 4.8 | 11.3 | 0.00 | 0.00 | 0.00 | 51 | 1014.4 |
| 20260901184347 | 35 | 209 | 9.7 | 11.3 | 0.00 | 0.00 | 0.00 | 51 | 1014.3 |
| 20260901183842 | 35 | 260 | 4.8 | 8.0 | 0.00 | 0.00 | 0.00 | 52 | 1014.5 |
| 20260901183341 | 34 | 219 | 8.0 | 12.9 | 0.00 | 0.00 | 0.00 | 55 | 1014.4 |
| 20260901182837 | 34 | 216 | 9.7 | 11.3 | 0.00 | 0.00 | 0.00 | 53 | 1014.6 |
| 20260901182332 | 34 | 207 | 6.4 | 11.3 | 0.00 | 0.00 | 0.00 | 54 | 1014.6 |
| 20260901181827 | 34 | 234 | 9.7 | 11.3 | 0.00 | 0.00 | 0.00 | 53 | 1014.6 |
| 20260901181321 | 34 | 265 | 8.0 | 9.7 | 0.00 | 0.00 | 0.00 | 53 | 1014.8 |
| 20260901180815 | 35 | 274 | 3.2 | 8.0 | 0.00 | 0.00 | 0.00 | 54 | 1014.8 |
| 20260901180314 | 34 | 254 | 3.2 | 9.7 | 0.00 | 0.00 | 0.00 | 56 | 1014.8 |
| 20260901175814 | 34 | 224 | 8.0 | 11.3 | 0.00 | 0.00 | 0.00 | 54 | 1014.8 |
| 20260901175308 | 33 | 224 | 4.8 | 8.0 | 0.00 | 0.00 | 0.00 | 55 | 1014.8 |
| 20260901174803 | 33 | 247 | 4.8 | 11.3 | 0.00 | 0.00 | 0.00 | 55 | 1014.9 |
| 20260901174259 | 33 | 196 | 12.9 | 14.5 | 0.00 | 0.00 | 0.00 | 55 | 1014.9 |
| 20260901173754 | 33 | 208 | 4.8 | 9.7 | 0.00 | 0.00 | 0.00 | 57 | 1014.9 |
| 20260901173249 | 33 | 218 | 4.8 | 9.7 | 0.00 | 0.00 | 0.00 | 56 | 1014.9 |
| 20260901172746 | 33 | 273 | 4.8 | 9.7 | 0.00 | 0.00 | 0.00 | 56 | 1014.9 |
| 20260901172244 | 33 | 215 | 8.0 | 11.3 | 0.00 | 0.00 | 0.00 | 55 | 1014.8 |
| 20260901171743 | 32 | 230 | 6.4 | 8.0 | 0.00 | 0.00 | 0.00 | 56 | 1015.0 |
| 20260901171242 | 32 | 264 | 3.2 | 14.5 | 0.00 | 0.00 | 0.00 | 55 | 1015.0 |
| 20260901170741 | 32 | 246 | 6.4 | 11.3 | 0.00 | 0.00 | 0.00 | 57 | 1015.0 |
| 20260901170236 | 33 | 208 | 9.7 | 12.9 | 0.00 | 0.00 | 0.00 | 56 | 1015.0 |
| 20260901165734 | 32 | 215 | 6.4 | 11.3 | 0.00 | 0.00 | 0.00 | 58 | 1015.1 |
| 20260901165229 | 32 | 224 | 6.4 | 11.3 | 0.00 | 0.00 | 0.00 | 61 | 1015.1 |
| 20260901164726 | 32 | 256 | 8.0 | 12.9 | 0.00 | 0.00 | 0.00 | 58 | 1015.2 |
| 20260901164221 | 32 | 214 | 6.4 | 9.7 | 0.00 | 0.00 | 0.00 | 59 | 1015.1 |
| 20260901163716 | 32 | 258 | 4.8 | 11.3 | 0.00 | 0.00 | 0.00 | 61 | 1015.0 |
| 20260901163215 | 32 | 203 | 6.4 | 8.0 | 0.00 | 0.00 | 0.00 | 62 | 1015.1 |
| 20260901162710 | 32 | 213 | 6.4 | 9.7 | 0.00 | 0.00 | 0.00 | 62 | 1015.1 |
| 20260901162210 | 31 | 265 | 8.0 | 11.3 | 0.00 | 0.00 | 0.00 | 62 | 1015.2 |
| 20260901161708 | 31 | 211 | 11.3 | 12.9 | 0.00 | 0.00 | 0.00 | 62 | 1015.0 |
| 20260901161203 | 31 | 278 | 4.8 | 11.3 | 0.00 | 0.00 | 0.00 | 65 | 1015.2 |
| 20260901160700 | 31 | 211 | 6.4 | 11.3 | 0.00 | 0.00 | 0.00 | 65 | 1015.1 |
| 20260901160155 | 31 | 213 | 4.8 | 12.9 | 0.00 | 0.00 | 0.00 | 66 | 1015.0 |
| 20260901155653 | 30 | 212 | 3.2 | 8.0 | 0.00 | 0.00 | 0.00 | 68 | 1014.9 |
| 20260901155149 | 30 | 215 | 6.4 | 9.7 | 0.00 | 0.00 | 0.00 | 66 | 1015.0 |
| 20260901154644 | 30 | 205 | 8.0 | 12.9 | 0.00 | 0.00 | 0.00 | 66 | 1015.1 |
| 20260901154138 | 30 | 226 | 4.8 | 11.3 | 0.00 | 0.00 | 0.00 | 69 | 1014.9 |
| 20260901153634 | 30 | 226 | 9.7 | 11.3 | 0.00 | 0.00 | 0.00 | 66 | 1014.8 |
| 20260901153127 | 30 | 199 | 6.4 | 9.7 | 0.00 | 0.00 | 0.00 | 69 | 1014.9 |
| 20260901152623 | 30 | 222 | 9.7 | 12.9 | 0.00 | 0.00 | 0.00 | 68 | 1015.1 |
| 20260901152121 | 29 | 216 | 4.8 | 12.9 | 0.00 | 0.00 | 0.00 | 70 | 1015.0 |
| 20260901151617 | 29 | 210 | 6.4 | 11.3 | 0.00 | 0.00 | 0.00 | 72 | 1015.2 |
| 20260901151116 | 28 | 204 | 6.4 | 12.9 | 0.00 | 0.00 | 0.00 | 72 | 1015.1 |
| 20260901150615 | 28 | 181 | 8.0 | 16.1 | 0.00 | 0.00 | 0.00 | 74 | 1015.1 |
| 20260901150113 | 28 | 185 | 8.0 | 12.9 | 0.00 | 0.00 | 0.00 | 74 | 1015.2 |
| 20260901145607 | 28 | 226 | 8.0 | 11.3 | 0.00 | 0.00 | 0.00 | 74 | 1015.1 |
| 20260901145106 | 28 | 220 | 6.4 | 11.3 | 0.00 | 0.00 | 0.00 | 75 | 1015.0 |
| 20260901144602 | 28 | 229 | 8.0 | 9.7 | 0.00 | 0.00 | 0.00 | 75 | 1015.1 |
| 20260901144057 | 28 | 214 | 3.2 | 4.8 | 0.00 | 0.00 | 0.00 | 77 | 1015.1 |
| 20260901143552 | 27 | 198 | 4.8 | 9.7 | 0.00 | 0.00 | 0.00 | 77 | 1015.2 |
| 20260901143049 | 27 | 204 | 6.4 | 9.7 | 0.00 | 0.00 | 0.00 | 79 | 1015.1 |
| 20260901142544 | 27 | 198 | 8.0 | 11.3 | 0.00 | 0.00 | 0.00 | 78 | 1015.0 |
| 20260901142043 | 27 | 230 | 3.2 | 8.0 | 0.00 | 0.00 | 0.00 | 80 | 1014.9 |
| 20260901141538 | 26 | 215 | 8.0 | 9.7 | 0.00 | 0.00 | 0.00 | 81 | 1015.1 |
| 20260901141033 | 26 | 228 | 6.4 | 11.3 | 0.00 | 0.00 | 0.00 | 81 | 1015.0 |
| 20260901140531 | 26 | 172 | 4.8 | 8.0 | 0.00 | 0.00 | 0.00 | 81 | 1015.1 |
| 20260901140021 | 26 | 245 | 3.2 | 8.0 | 0.00 | 0.00 | 0.00 | 82 | 1015.0 |
| 20260901135520 | 26 | 212 | 6.4 | 8.0 | 0.00 | 0.00 | 0.00 | 83 | 1015.2 |
| 20260901135016 | 26 | 213 | 6.4 | 9.7 | 0.00 | 0.00 | 0.00 | 85 | 1015.1 |
| 20260901134512 | 25 | 253 | 3.2 | 4.8 | 0.00 | 0.00 | 0.00 | 85 | 1015.0 |
| 20260901134006 | 25 | 186 | 4.8 | 8.0 | 0.00 | 0.00 | 0.00 | 86 | 1015.1 |
| 20260901133505 | 25 | 239 | 3.2 | 8.0 | 0.00 | 0.00 | 0.00 | 86 | 1015.1 |
| 20260901133003 | 25 | 236 | 3.2 | 4.8 | 0.00 | 0.00 | 0.00 | 88 | 1015.0 |
| 20260901132458 | 25 | 188 | 3.2 | 4.8 | 0.00 | 0.00 | 0.00 | 88 | 1015.2 |
| 20260901131956 | 25 | 248 | 1.6 | 4.8 | 0.00 | 0.00 | 0.00 | 89 | 1015.1 |
| 20260901131451 | 25 | 189 | 4.8 | 4.8 | 0.00 | 0.00 | 0.00 | 89 | 1015.1 |
| 20260901130947 | 25 | 221 | 3.2 | 4.8 | 0.00 | 0.00 | 0.00 | 89 | 1015.2 |
| 20260901130441 | 25 | 249 | 4.8 | 8.0 | 0.00 | 0.00 | 0.00 | 88 | 1015.1 |
| 20260901125939 | 25 | 263 | 1.6 | 4.8 | 0.00 | 0.00 | 0.00 | 91 | 1015.3 |
| 20260901125438 | 25 | 190 | 3.2 | 4.8 | 0.00 | 0.00 | 0.00 | 92 | 1015.2 |
| 20260901124933 | 25 | 195 | 4.8 | 4.8 | 0.00 | 0.00 | 0.00 | 92 | 1015.2 |
| 20260901124428 | 25 | 195 | 4.8 | 4.8 | 0.00 | 0.00 | 0.00 | 92 | 1015.2 |
| 20260901123923 | 24 | 235 | 3.2 | 3.2 | 0.00 | 0.00 | 0.00 | 93 | 1015.2 |
| 20260901123418 | 24 | 203 | 3.2 | 3.2 | 0.00 | 0.00 | 0.00 | 93 | 1015.0 |
| 20260901122916 | 24 | 261 | 1.6 | 1.6 | 0.00 | 0.00 | 0.00 | 93 | 1015.1 |
| 20260901122411 | 24 | 204 | 1.6 | 3.2 | 0.00 | 0.00 | 0.00 | 94 | 1014.9 |
| 20260901121910 | 23 | 269 | 0.0 | 1.6 | 0.00 | 0.00 | 0.00 | 94 | 1014.9 |
| 20260901121405 | 23 | 233 | 1.6 | 4.8 | 0.00 | 0.00 | 0.00 | 94 | 1014.9 |
| 20260901120901 | 23 | 247 | 1.6 | 3.2 | 0.00 | 0.00 | 0.00 | 95 | 1015.0 |
| 20260901120355 | 23 | 265 | 0.0 | 3.2 | 0.00 | 0.00 | 0.00 | 96 | 1015.0 |
| 20260901115850 | 23 | 241 | 1.6 | 1.6 | 0.00 | 0.00 | 0.00 | 98 | 1015.1 |
| 20260901115345 | 23 | 213 | 3.2 | 3.2 | 0.00 | 0.00 | 0.00 | 98 | 1015.0 |
| 20260901114843 | 23 | 189 | 3.2 | 3.2 | 0.00 | 0.00 | 0.00 | 99 | 1014.7 |
| 20260901114338 | 23 | 232 | 1.6 | 3.2 | 0.00 | 0.00 | 0.00 | 99 | 1014.7 |
| 20260901113836 | 23 | 188 | 1.6 | 4.8 | 0.00 | 0.00 | 0.00 | 99 | 1014.7 |
| 20260901113335 | 23 | 185 | 3.2 | 4.8 | 0.00 | 0.00 | 0.00 | 99 | 1014.6 |
| 20260901112831 | 23 | 189 | 4.8 | 4.8 | 0.00 | 0.00 | 0.00 | 99 | 1014.8 |
| 20260901112330 | 23 | 178 | 4.8 | 4.8 | 0.00 | 0.00 | 0.00 | 99 | 1014.7 |
| 20260901111825 | 23 | 189 | 3.2 | 4.8 | 0.00 | 0.00 | 0.00 | 99 | 1014.6 |
| 20260901111324 | 23 | 181 | 3.2 | 4.8 | 0.00 | 0.00 | 0.00 | 99 | 1014.6 |
| 20260901110823 | 23 | 258 | 0.0 | 0.0 | 0.00 | 0.00 | 0.00 | 99 | 1014.8 |
| 20260901110319 | 23 | 249 | 1.6 | 1.6 | 0.00 | 0.00 | 0.00 | 99 | 1014.7 |
| 20260901105815 | 23 | 264 | 1.6 | 1.6 | 0.00 | 0.00 | 0.00 | 99 | 1014.8 |
| 20260901105314 | 23 | 269 | 0.0 | 3.2 | 0.00 | 0.00 | 0.00 | 99 | 1014.6 |
| 20260901104811 | 23 | 204 | 1.6 | 3.2 | 0.00 | 0.00 | 0.00 | 99 | 1014.5 |
| 20260901104306 | 23 | 186 | 3.2 | 3.2 | 0.00 | 0.00 | 0.00 | 99 | 1014.5 |
| 20260901103801 | 23 | 245 | 1.6 | 3.2 | 0.00 | 0.00 | 0.00 | 99 | 1014.6 |
| 20260901103255 | 23 | 201 | 1.6 | 3.2 | 0.00 | 0.00 | 0.00 | 99 | 1014.7 |
| 20260901102750 | 23 | 187 | 3.2 | 4.8 | 0.00 | 0.00 | 0.00 | 99 | 1014.7 |
| 20260901102250 | 23 | 205 | 3.2 | 4.8 | 0.00 | 0.00 | 0.00 | 99 | 1014.7 |
| 20260901101746 | 23 | 252 | 3.2 | 3.2 | 0.00 | 0.00 | 0.00 | 99 | 1014.7 |
| 20260901101245 | 23 | 271 | 0.0 | 1.6 | 0.00 | 0.00 | 0.00 | 99 | 1014.6 |
| 20260901100745 | 23 | 297 | 0.0 | 0.0 | 0.00 | 0.00 | 0.00 | 99 | 1014.7 |
| 20260901100240 | 23 | 297 | 0.0 | 0.0 | 0.00 | 0.00 | 0.00 | 99 | 1014.5 |
| 20260901095738 | 23 | 297 | 0.0 | 0.0 | 0.00 | 0.00 | 0.00 | 99 | 1014.5 |
| 20260901095236 | 23 | 297 | 0.0 | 0.0 | 0.00 | 0.00 | 0.00 | 99 | 1014.5 |
| 20260901094731 | 23 | 297 | 0.0 | 0.0 | 0.00 | 0.00 | 0.00 | 99 | 1014.5 |
| 20260901094226 | 23 | 297 | 0.0 | 0.0 | 0.00 | 0.00 | 0.00 | 99 | 1014.4 |
| 20260901093721 | 23 | 305 | 0.0 | 0.0 | 0.00 | 0.00 | 0.00 | 99 | 1014.6 |
| 20260901093220 | 23 | 335 | 1.6 | 1.6 | 0.00 | 0.00 | 0.00 | 99 | 1014.4 |
| 20260901092716 | 23 | 32 | 1.6 | 1.6 | 0.00 | 0.00 | 0.00 | 99 | 1014.4 |
| 20260901092212 | 23 | 346 | 0.0 | 1.6 | 0.00 | 0.00 | 0.00 | 99 | 1014.4 |
| 20260901091707 | 23 | 310 | 0.0 | 1.6 | 0.00 | 0.00 | 0.00 | 99 | 1014.3 |
| 20260901091202 | 23 | 330 | 0.0 | 3.2 | 0.00 | 0.00 | 0.00 | 99 | 1014.6 |
| 20260901090656 | 23 | 319 | 0.0 | 3.2 | 0.00 | 0.00 | 0.00 | 99 | 1014.6 |
| 20260901090152 | 23 | 323 | 0.0 | 1.6 | 0.00 | 0.00 | 0.00 | 99 | 1014.8 |
| 20260901085648 | 23 | 327 | 0.0 | 1.6 | 0.00 | 0.00 | 0.00 | 99 | 1014.6 |
| 20260901085143 | 23 | 326 | 0.0 | 1.6 | 0.00 | 0.00 | 0.00 | 99 | 1014.6 |
| 20260901084639 | 23 | 281 | 0.0 | 0.0 | 0.00 | 0.00 | 0.00 | 99 | 1014.6 |
| 20260901084135 | 23 | 281 | 0.0 | 1.6 | 0.00 | 0.00 | 0.00 | 99 | 1014.5 |
| 20260901083630 | 23 | 281 | 0.0 | 0.0 | 0.00 | 0.00 | 0.00 | 99 | 1014.5 |
| 20260901083128 | 23 | 281 | 0.0 | 0.0 | 0.00 | 0.00 | 0.00 | 99 | 1014.7 |
| 20260901082623 | 23 | 281 | 0.0 | 0.0 | 0.00 | 0.00 | 0.00 | 99 | 1014.6 |
| 20260901082118 | 23 | 281 | 0.0 | 0.0 | 0.00 | 0.00 | 0.00 | 99 | 1014.4 |
| 20260901081614 | 23 | 281 | 0.0 | 0.0 | 0.00 | 0.00 | 0.00 | 99 | 1014.6 |
| 20260901081114 | 23 | 280 | 0.0 | 0.0 | 0.00 | 0.00 | 0.00 | 99 | 1014.4 |
| 20260901080608 | 23 | 280 | 0.0 | 0.0 | 0.00 | 0.00 | 0.00 | 99 | 1014.4 |
| 20260901080107 | 24 | 269 | 0.0 | 0.0 | 0.00 | 0.00 | 0.00 | 99 | 1014.5 |
| 20260901075603 | 24 | 226 | 0.0 | 0.0 | 0.00 | 0.00 | 0.00 | 99 | 1014.4 |
| 20260901075102 | 24 | 226 | 1.6 | 1.6 | 0.00 | 0.00 | 0.00 | 99 | 1014.3 |
| 20260901074601 | 24 | 225 | 1.6 | 3.2 | 0.00 | 0.00 | 0.00 | 99 | 1014.4 |
| 20260901074057 | 24 | 225 | 3.2 | 4.8 | 0.00 | 0.00 | 0.00 | 99 | 1014.5 |
| 20260901073554 | 24 | 237 | 3.2 | 3.2 | 0.00 | 0.00 | 0.00 | 99 | 1014.5 |
| 20260901073053 | 24 | 254 | 0.0 | 0.0 | 0.00 | 0.00 | 0.00 | 99 | 1014.5 |
| 20260901072549 | 24 | 254 | 0.0 | 0.0 | 0.00 | 0.00 | 0.00 | 99 | 1014.5 |
| 20260901072043 | 24 | 271 | 0.0 | 0.0 | 0.00 | 0.00 | 0.00 | 99 | 1014.8 |
| 20260901071538 | 24 | 271 | 0.0 | 0.0 | 0.00 | 0.00 | 0.00 | 99 | 1014.8 |
| 20260901071036 | 24 | 271 | 0.0 | 0.0 | 0.00 | 0.00 | 0.00 | 99 | 1014.6 |
| 20260901070532 | 24 | 271 | 0.0 | 0.0 | 0.00 | 0.00 | 0.00 | 99 | 1014.6 |
| 20260901070027 | 24 | 271 | 0.0 | 0.0 | 0.00 | 0.00 | 0.00 | 99 | 1014.6 |
| 20260901065521 | 24 | 272 | 0.0 | 0.0 | 0.00 | 0.00 | 0.00 | 99 | 1014.7 |
| 20260901065015 | 24 | 272 | 0.0 | 0.0 | 0.00 | 0.00 | 0.00 | 99 | 1014.9 |
| 20260901064507 | 24 | 272 | 0.0 | 0.0 | 0.00 | 0.00 | 0.00 | 99 | 1014.7 |
| 20260901064004 | 24 | 272 | 0.0 | 0.0 | 0.00 | 0.00 | 0.00 | 99 | 1015.1 |
| 20260901063500 | 25 | 272 | 0.0 | 0.0 | 0.00 | 0.00 | 0.00 | 98 | 1015.0 |
| 20260901062955 | 25 | 272 | 0.0 | 0.0 | 0.00 | 0.00 | 0.00 | 98 | 1015.0 |
| 20260901062451 | 25 | 272 | 0.0 | 0.0 | 0.00 | 0.00 | 0.00 | 98 | 1015.0 |
| 20260901061947 | 25 | 272 | 0.0 | 0.0 | 0.00 | 0.00 | 0.00 | 98 | 1015.1 |
| 20260901061443 | 25 | 272 | 0.0 | 0.0 | 0.00 | 0.00 | 0.00 | 98 | 1015.0 |
| 20260901060942 | 25 | 272 | 0.0 | 0.0 | 0.00 | 0.00 | 0.00 | 97 | 1014.9 |